Location: Warner Observatory
(35.1353°N, 89.5455°W)
Time: 14:54:10
(UTC-06:00)

Envisat - Pass Details

Date: 29 January 2020
Orbit: 764 x 766 km, 98.1° (Epoch: 25 February)

Event Time Altitude Azimuth Distance (km) Brightness Sun altitude
Rises 06:06:11 0° 20° (NNE) 3,236 6.3 -11.2°
Reaches altitude 10° 06:08:37 10° 27° (NNE) 2,305 5.6 -10.8°
Maximum altitude 06:13:27 43° 99° (E) 1,058 4.4 -9.8°
Drops below altitude 10° 06:18:14 10° 170° (S) 2,291 5.8 -8.9°
Sets 06:20:38 0° 177° (S) 3,212 6.5 -8.4°
